STARLINK-2160 (47746 NORAD) Tracking and Keplerian Element Data

This shows tracking and keplerian element data for the satellite.

Feedback or suggestion? Click here.




ElementValue
Catalog47746
NameSTARLINK-2160
Epoch Orbit1781
Epoch Day170.31517943
Epoch Year2021
RAAN32.6228
Inclination53.056
Eccentricity0.0002344
Argument of Perigee94.4597
Mean Anonmoly265.6659
Mean Motion15.06418189
Decay Rate2.256E-05
L11 47746U 21017AA 21170.31517943 .00002256 00000-0 17023-3 0 9994
L22 47746 53.0560 32.6228 0002344 94.4597 265.6659 15.06418189 17812

Live tracking and technical data element details for STARLINK-2160 (NORAD 47746). STARLINK-2160 can be tracked NOW for your location showing map with azimuth and elevation plus other details from your city location.

Track the satellite on the map from your city or location and see movement details for azimuth, elevation, latitude, longitude, range, height, and movement on the map or in text.







IsCatalogInMostPopularTable: catalog: 47746, numindb: 46
Update: records affected: 1



GetName: 47746 STARLINK-2160

Hit Count: updated at: Mon, 21 Jun 2021 04:55:28 GMT